Location: Newark
(49.2191°N, 12.6671°E)
Time: 16:49:51
(UTC+00:00)

Transit 4A - Pass Details

Date: 01 February 2020
Orbit: 872 x 973 km, 66.8° (Epoch: 21 February)

Event Time Altitude Azimuth Distance (km) Brightness Sun altitude
Rises 10:49:19 0° 324° (NW) 3,478 10.4 23.2°
Reaches altitude 10° 10:52:12 10° 336° (NNW) 2,533 9.7 23.3°
Maximum altitude 10:57:09 28° 34° (NE) 1,602 9.0 23.4°
Drops below altitude 10° 11:02:05 10° 92° (E) 2,532 10.4 23.4°
Sets 11:04:58 0° 104° (ESE) 3,477 11.1 23.5°
